User: anonymous   Login
Location: Deer Lodge Site
(39.6809°N, 119.9392°W)
Time: 05:01:08
(UTC-08:00)
Language:

CZ-4C R/B - Orbit

View from above orbital plane
View from above orbital plane
View from above satellite
View from above satellite

Ground track
Ground track

The orbit data is extracted from the following two-line orbital elements,

1 36416U 10009D   18053.14735207 -.00000069  00000-0  18109-4 0  9995
2 36416  63.4372 313.6860 0411683 355.8064   3.9561 13.69530538398601
Epoch (UTC): 22 February 2018 03:32:11
Eccentricity: 0.0411683
inclination: 63.4372°
perigee height: 697 km
apogee height: 1305 km
right ascension of ascending node: 313.6860°
argument of perigee: 355.8064°
revolutions per day: 13.69530538
mean anomaly at epoch: 3.9561°
orbit number at epoch: 39860

The dashed part of the orbit path shows where the satellite is in the earth's shadow,  

DLR